Orbital Elements at Epoch 2456168.5 (2012-Aug-29.0) TDB
Reference: JPL 15 (heliocentric ecliptic J2000)
Element | Value | Uncertainty (1-sigma) | Units |
e | .3364887570941738 | 4.3523e-06 | |
a | 3.529432304675793 | 3.714e-07 | au |
q | 2.34181801522741 | 1.5495e-05 | au |
i | 12.37945389611489 | 7.8629e-05 | deg |
node | 184.0618493077165 | 0.00010689 | deg |
peri | 31.06869571974887 | 0.0021229 | deg |
M | 344.1677851173906 | 0.000958 | deg |
tp | 2456275.011104059665 (2012-Dec-13.51110406) | 0.0064459 | TDB |
period | 2421.897235843961 6.63 | 0.00038229 1.047e-06 | d yr |
n | .1486437965542127 | 2.3463e-08 | deg/d |
Q | 4.717046594124175 | 4.9638e-07 | au |
|
| | Orbit Determination Parameters
Additional Information
|